Location: Unspecified
(0.0000°N, 0.0000°E)
Time: 02:49:02
(UTC+01:00)

PROBA 2 - Visible Passes

Search period start: 26 October 2014 00:00
Search period end: 04 November 2014 23:00
Orbit: 707 x 727 km, 98.3° (Epoch: 25 October)

Date Brightness Start Highest point End Pass type
(mag) Time Alt. Az. Time Alt. Az. Time Alt. Az.
27 Oct ? 19:42:30 10° N 19:47:03 43° WNW 19:51:39 10° SSW visible
28 Oct ? 20:33:21 10° WNW 20:34:09 10° WNW 20:34:57 10° W visible
29 Oct ? 19:38:52 10° N 19:43:30 48° WNW 19:48:11 10° SSW visible
30 Oct ? 20:28:52 10° WNW 20:30:35 12° WNW 20:32:19 10° W visible
31 Oct ? 19:35:14 10° N 19:39:56 54° WNW 19:44:41 10° SSW visible
01 Nov ? 20:24:46 10° NW 20:27:02 13° WNW 20:29:19 10° WSW visible
02 Nov ? 19:31:37 10° N 19:36:23 61° WNW 19:41:11 10° SSW visible
03 Nov ? 20:20:47 10° NW 20:23:28 15° WNW 20:26:11 10° WSW visible
04 Nov ? 19:28:01 10° N 19:32:49 68° WNW 19:37:39 10° SSW visible
